This is the latest recevied weather packets stored in our database for station/object YT1XN-8. If no packets are shown the sender has not sent any weather packets the latest 10 day(s).
| Time | Temp. | Humidity | Pressure | Rain* | Wind** | Luminosity | Snow |
|---|---|---|---|---|---|---|---|
| 1777726362 | 18.89° C | 49% | 1022.5 hPa | 0 mm | - | - | - |
| 1777726243 | 18.89° C | 49% | 1022.5 hPa | 0 mm | - | - | - |
| 1777725702 | 20° C | 45% | 1022.5 hPa | 0 mm | - | - | - |
| 1777725643 | 20° C | 45% | 1022.6 hPa | 0 mm | - | - | - |
| 1777725042 | 20° C | 48% | 1022.6 hPa | 0 mm | - | - | - |
| 1777724446 | 18.89° C | 50% | 1022.7 hPa | 0 mm | - | - | - |
| 1777724382 | 18.89° C | 49% | 1022.7 hPa | 0 mm | - | - | - |
| 1777723843 | 19.44° C | 47% | 1022.7 hPa | 0 mm | - | - | - |
| 1777723722 | 19.44° C | 49% | 1022.8 hPa | 0 mm | - | - | - |
| 1777723243 | 19.44° C | 48% | 1022.8 hPa | 0 mm | - | - | - |
| 1777723062 | 18.89° C | 48% | 1022.8 hPa | 0 mm | - | - | - |
| 1777722643 | 18.89° C | 52% | 1022.9 hPa | 0 mm | - | - | - |
| 1777722402 | 18.89° C | 48% | 1023 hPa | 0 mm | - | - | - |
| 1777722043 | 18.33° C | 49% | 1022.9 hPa | 0 mm | - | - | - |
| 1777721742 | 18.33° C | 51% | 1023 hPa | 0 mm | - | - | - |
| 1777721443 | 18.33° C | 48% | 1023 hPa | 0 mm | - | - | - |
| 1777721082 | 18.33° C | 49% | 1023 hPa | 0 mm | - | - | - |
| 1777720844 | 18.89° C | 49% | 1023 hPa | 0 mm | - | - | - |
| 1777720422 | 18.89° C | 45% | 1023 hPa | 0 mm | - | - | - |
| 1777720243 | 19.44° C | 47% | 1023.2 hPa | 0 mm | - | - | - |
| 1777719762 | 19.44° C | 49% | 1023.4 hPa | 0 mm | - | - | - |
| 1777719643 | 19.44° C | 49% | 1023.4 hPa | 0 mm | - | - | - |
| 1777719102 | 19.44° C | 48% | 1023.6 hPa | 0 mm | - | - | - |
| 1777719044 | 19.44° C | 47% | 1023.7 hPa | 0 mm | - | - | - |
| 1777718442 | 20° C | 50% | 1023.8 hPa | 0 mm | - | - | - |
* Rain latest hour (hover to see other rain measurements)
** Current wind speed in m/s (hover to see current wind gust speed)